{"data":{"norad_id":48982,"intl_designator":"2021-060R","name":"ONEWEB-0264","alt_names":[],"object_type":"PAYLOAD","status":"ACTIVE","operator":null,"country":"UK","launch_date":"2021-07-01","launch_site_code":"VOSTO","launch_vehicle":null,"mission":null,"orbit_class":"UNKNOWN","rcs_meters":null,"size_class":null,"mass_kg":null,"dimensions":null,"purposes":["comms"],"wikipedia_slug":null,"has_3d_model":false,"image_url":null,"decayed_at":null,"tle_current":{"epoch":"2026-09-20T04:19:56.030304Z","epoch_age_seconds":49500,"freshness":"FRESH","line1":"1 48982U 21060R   26263.18050961  .00000080  00000+0  17538-3 0  9993","line2":"2 48982  87.9154 209.9209 0002209  75.1406 284.9969 13.16593623252098","mean_motion":13.16593623,"eccentricity":0.0002209,"inclination_deg":87.9154,"raan_deg":209.9209,"arg_perigee_deg":75.1406,"mean_anomaly_deg":284.9969,"bstar":0.00017538,"rev_number":25209,"period_min":109.37315621496,"perigee_km":1196.0855837381,"apogee_km":1199.4326146347,"semimajor_km":7575.8960991864,"source":"CELESTRAK","updated_at":"2026-09-20T09:00:44.626125Z"}}}